Regional Weather Roundup
Issued by NWS

Home | Current Version | Previous Version | Graphics & Text | Print | Product List | Glossary On
Versions: 1 2 3 4 5 6 7 8 9 10 11 12 13 14 15 16 17 18 19 20 21 22 23 24 25 26 27 28 29 30 31 32 33 34 35 36 37 38 39 40 41 42 43 44 45 46 47 48 49 50
000
ASUS43 KFSD 262110
RWRSD

WEATHER ROUNDUP FOR SOUTH DAKOTA
NATIONAL WEATHER SERVICE SIOUX FALLS SD
400 PM CDT SUN MAR 26 2017

NOTE: "FAIR" INDICATES FEW OR NO CLOUDS BELOW 12,000 FEET WITH NO
SIGNIFICANT WEATHER AND/OR OBSTRUCTIONS TO VISIBILITY.


SDZ001>005-009-010-012>017-262200-
NORTHWEST AND NORTH CENTRAL SOUTH DAKOTA

CITY           SKY/WX    TMP DP  RH WIND       PRES   REMARKS
BUFFALO          N/A     55  37  50 CALM      29.85F
FAITH            N/A     49  35  58 MISG      29.92F
MOBRIDGE       CLOUDY    53  34  48 VRB3      29.90F
$$

SDZ012>016-024>037-041>051-057-063-072>074-262200-
SOUTHWEST AND SOUTH CENTRAL SOUTH DAKOTA

CITY           SKY/WX    TMP DP  RH WIND       PRES   REMARKS
RAPID CTY ARPT LGT RAIN  41  38  89 N14       29.94S
PIERRE         CLOUDY    43  38  82 W6        29.93S
CUSTER         LGT RAIN  38  36  92 CALM      29.91S
ELLSWORTH AFB  LGT RAIN  41  41 100 N9        29.94
PHILIP         CLOUDY    45  41  86 N7        29.94S
PINE RIDGE     CLOUDY    51  39  63 N7        29.91F
SPEARFISH      LGT RAIN  41  39  93 W8        29.95F
WINNER         CLOUDY    50  40  68 NE5       29.92R
$$

SDZ004>011-016>023-039-040-262200-
NORTHEAST SOUTH DAKOTA

CITY           SKY/WX    TMP DP  RH WIND       PRES   REMARKS
ABERDEEN       CLOUDY    45  36  70 W6        29.94F
WATERTOWN      CLOUDY    44  37  76 NW7       29.92S
BROOKINGS      CLOUDY    41  37  86 NW5       29.93S
SISSETON         N/A     45  39  79 CALM      29.93F
$$

SDZ017-020-022-023-036>040-048>070-262200-
SOUTHEAST SOUTH DAKOTA

CITY           SKY/WX    TMP DP  RH WIND       PRES   REMARKS
SIOUX FALLS    CLOUDY    47  38  71 NE5       29.92F
HURON          CLOUDY    47  37  68 N5        29.93F
CHAMBERLAIN    CLOUDY    49  41  75 E3        29.92S
MITCHELL       CLOUDY    47  38  71 NE6       29.93F
YANKTON        CLOUDY    46  39  76 NW3       29.92F
$$

ABBREVIATIONS USED IN REMARKS
   TC - TEMPERATURE IN CELSIUS
  WCI - WIND CHILL INDEX
   HX - HEAT INDEX
  VSB - VISIBILITY





USA.gov is the U.S. government's official web portal to all federal, state and local government web resources and services.